RH
26 19 14 13 14 16 19 24 40 44 18 12 17 24 29 15 19 53 78 97 90 84 82 79 68 52 54 23 9 7 8 10 26 46 45 45 87 91 100 85 86 61 77 38 38 43 94
31 23 16 14 15 17 16 15 21 44 41 29 20 21 32 23 12 48 68 93 99 100 96 87 71 66 40 14 9 9 11 14 47 53 54 61 96 84 100 64 100 57 76 58 37 74 85
34 29 19 16 14 12 14 10 24 52 55 43 38 34 36 24 30 100 62 84 90 99 97 91 76 62 26 12 10 15 14 16 61 63 53 81 87 97 93 94 98 95 81 54 40 51 93
36 33 25 18 16 14 14 10 18 51 63 54 45 35 25 17 12 80 100 83 97 96 100 93 73 49 17 13 16 19 14 18 69 53 67 74 92 100 75 77 71 85 90 74 57 56 99
39 36 28 22 18 19 19 14 13 46 62 53 37 31 22 12 11 43 63 59 92 97 99 92 75 32 16 20 24 28 17 46 72 51 63 94 92 82 99 97 63 83 80 64 44 86 98
47 45 38 28 21 19 19 16 12 22 62 56 43 34 21 17 12 18 90 100 99 97 96 93 69 22 21 19 32 44 31 47 55 59 76 98 99 79 100 99 64 90 88 52 35 68 99
52 52 43 34 26 25 28 27 14 24 40 62 60 49 31 22 14 10 22 100 100 98 99 99 54 19 16 27 46 64 45 48 56 70 69 98 98 100 100 94 77 81 76 66 41 84 98
61 53 37 34 36 40 47 44 29 32 37 49 48 51 52 19 20 14 18 100 96 98 95 99 32 22 20 28 67 71 77 49 67 68 62 63 88 100 100 100 89 100 86 58 46 91 100
78 59 44 45 54 62 64 59 47 37 33 38 44 40 47 16 19 16 10 30 99 97 100 86 29 21 24 32 67 70 69 41 54 44 45 56 100 90 100 99 94 86 95 56 82 99 100
90 55 46 44 50 60 70 71 71 56 44 36 29 34 30 36 17 16 12 64 77 100 99 80 25 24 26 36 65 68 48 45 62 31 46 82 78 100 75 97 89 95 96 96 99 100 100
65 44 38 43 56 76 82 77 65 58 49 39 33 28 19 36 22 16 10 10 74 98 100 63 24 23 25 28 48 82 76 72 60 55 85 76 94 95 90 88 100 89 90 98 99 96 96
52 42 40 61 74 84 79 72 62 49 46 29 32 29 20 22 30 18 11 36 100 89 99 58 22 22 23 23 40 77 91 92 98 91 71 88 95 99 87 93 99 91 78 78 74 93 98
48 42 50 74 54 40 26 19 18 18 18 17 21 26 22 18 28 19 12 40 90 95 98 46 20 24 24 28 44 69 85 97 100 98 96 77 98 96 100 99 86 85 91 67 81 98 97
53 51 71 48 31 20 22 28 36 36 22 13 13 20 22 18 25 20 13 18 59 100 100 36 20 23 24 33 49 65 70 74 81 91 100 86 74 81 88 100 90 94 100 100 84 78 80
41 60 55 34 22 37 54 59 51 13 20 24 9 19 20 21 23 19 13 24 100 100 90 21 21 25 29 51 59 67 64 60 72 70 86 93 64 48 44 86 99 100 100 100 95 94 85
48 60 39 24 46 63 70 100 28 100 100 100 12 18 18 22 20 15 15 49 92 100 60 17 25 26 31 50 63 51 44 60 68 79 86 74 84 67 45 60 99 100 100 100 100 93 82
57 46 24 39 53 67 99 71 100 100 100 100 13 16 19 21 16 21 22 36 89 96 40 16 20 26 26 54 52 47 35 51 62 64 54 52 55 65 75 100 95 75 90 93 94 94 92
54 27 31 55 68 86 97 88 100 100 100 100 23 14 18 18 16 28 35 68 100 74 20 15 22 30 31 44 54 42 41 53 50 56 58 53 54 62 63 54 54 57 48 47 42 63 54
42 24 48 63 82 96 82 87 100 100 100 91 13 16 16 17 49 55 76 100 98 41 14 13 20 26 28 34 37 30 37 38 43 44 47 46 42 43 47 52 47 38 28 36 38 50 50
26 33 57 57 95 91 73 90 95 100 98 33 14 15 15 18 64 79 99 100 84 17 9 10 16 23 22 27 29 54 48 42 45 32 25 40 46 54 57 58 59 48 44 45 48 48 46
23 42 60 50 79 100 68 90 100 100 80 20 13 13 67 81 75 98 100 100 43 9 7 8 10 21 30 29 44 50 42 33 36 33 30 25 46 51 59 56 53 55 52 48 44 38 34
27 42 54 35 58 78 80 97 86 89 63 23 15 68 72 84 96 100 97 80 14 7 6 7 12 20 26 41 48 73 59 48 44 43 34 24 33 48 51 42 41 43 47 45 37 38 45
37 40 31 20 65 56 87 86 74 59 33 40 94 87 74 99 97 98 92 31 8 6 5 4 4 12 29 37 43 52 48 50 46 32 30 26 22 41 44 42 39 39 41 38 33 28 31
39 29 9 32 59 55 72 68 66 49 43 74 93 86 100 99 97 88 38 8 5 4 4 4 4 5 8 19 23 20 28 51 44 42 30 30 27 32 35 34 30 31 30 26 29 31 32
33 13 9 50 44 41 49 35 50 92 99 95 97 100 98 100 85 41 17 6 4 3 3 3 3 3 4 4 10 20 23 24 26 27 31 33 32 32 31 28 23 26 28 24 23 28 31
17 6 18 52 36 27 74 95 99 98 96 99 100 98 98 99 57 33 12 5 4 3 3 3 3 3 3 4 4 6 10 14 16 20 26 25 27 28 29 28 25 24 23 22 21 23 30
7 8 10 30 48 94 100 98 87 96 100 99 97 93 96 81 49 24 8 5 4 3 3 3 4 4 3 3 3 3 4 4 4 4 4 7 9 14 16 15 21 22 23 23 28 25 24
6 9 15 47 88 97 94 88 92 95 92 96 98 96 85 66 33 16 7 5 4 4 4 3 4 4 4 4 4 4 3 4 3 3 4 4 4 5 6 6 11 8 11 13 15 15 18
5 15 22 75 95 81 90 100 88 92 98 97 97 96 77 54 28 10 6 5 4 4 4 4 5 5 4 5 5 5 5 5 5 5 5 4 4 4 4 4 4 4 4 4 5 4 5
Wind_Speed
51 49 45 45 43 45 47 47 50 50 46 46 41 41 42 34 34 36 38 38 38 41 46 47 51 54 58 63 65 67 65 58 44 26 28 27 23 23 24 17 49 56 50 58 54 50 47
50 50 47 45 47 47 49 51 50 51 48 47 47 46 43 40 35 34 37 40 41 41 44 47 51 54 59 65 63 62 56 49 29 23 29 17 18 19 18 27 38 48 50 52 54 59 65
48 49 47 48 47 47 49 48 49 50 50 46 47 45 49 39 32 36 35 43 45 42 45 48 51 55 59 63 60 54 49 39 17 20 11 16 15 15 15 40 38 40 47 51 52 65 45
53 55 53 52 51 51 51 47 45 47 48 47 44 40 45 38 37 31 35 41 41 42 47 48 52 54 59 56 52 48 42 26 10 9 11 14 12 9 14 39 44 48 42 49 49 66 39
57 56 56 54 53 53 55 52 45 44 46 45 43 40 37 39 42 36 35 35 44 44 48 47 51 52 53 47 39 41 33 6 6 6 13 18 13 15 18 26 42 43 37 45 45 56 63
58 55 55 54 54 55 56 51 48 44 45 46 45 42 40 40 43 40 37 38 46 49 47 46 47 49 46 35 35 39 27 11 3 5 15 14 11 21 18 30 38 32 33 41 45 70 40
60 59 56 57 56 56 55 52 50 44 45 45 46 43 45 44 41 44 40 40 45 47 45 43 45 44 38 26 31 31 16 8 3 5 14 12 23 18 7 27 34 30 33 35 43 65 34
64 64 60 57 57 57 57 55 52 48 45 45 42 44 44 45 42 44 38 37 41 47 43 43 42 37 27 20 30 27 10 5 5 11 18 7 8 17 18 21 31 28 31 35 53 50 28
68 64 59 60 60 60 60 58 55 55 50 47 47 44 44 41 41 41 38 36 42 44 43 42 34 30 20 19 28 18 7 5 4 9 10 9 12 16 23 22 23 30 27 48 40 33 24
67 64 64 65 63 63 63 62 60 58 54 49 48 48 47 44 46 39 38 32 42 41 40 42 26 20 14 18 24 15 14 10 13 13 12 13 16 20 23 17 16 28 28 48 15 27 39
69 71 75 72 68 64 66 63 64 58 55 50 48 49 50 44 48 41 33 35 38 40 42 29 26 16 7 13 13 15 23 23 20 16 15 18 25 20 16 13 17 20 32 41 33 13 22
76 76 78 72 68 63 61 61 60 59 58 50 48 50 51 47 46 44 33 29 38 37 37 27 18 11 3 6 9 19 24 25 21 20 19 15 15 15 19 17 9 8 20 26 34 21 21
78 81 76 70 65 65 65 64 61 62 58 57 49 51 54 51 44 41 34 28 37 32 31 23 16 8 2 9 13 9 10 14 15 22 19 18 13 20 13 16 10 9 8 14 19 20 20
82 79 74 69 70 67 61 58 59 62 56 61 53 54 55 48 44 38 36 31 30 31 29 22 11 2 9 11 14 11 9 7 17 20 17 24 21 18 21 17 12 15 17 16 15 22 19
85 78 73 74 69 59 56 59 57 30 15 24 50 53 54 48 43 37 34 30 27 32 23 16 9 6 14 18 15 15 14 12 13 12 10 13 16 17 16 16 15 21 16 17 16 18 16
83 76 77 70 61 55 55 48 13 24 13 14 50 52 48 45 40 36 33 24 27 26 21 14 9 12 18 23 19 13 10 14 14 13 14 15 11 14 15 12 14 19 17 16 18 15 16
79 78 74 63 57 55 43 20 25 17 16 21 46 49 47 44 42 36 26 21 24 23 18 12 9 14 19 24 20 10 11 14 15 13 13 11 10 9 14 11 12 7 5 5 10 14 14
79 78 71 59 56 44 32 18 23 14 18 30 44 48 49 47 42 32 21 23 20 16 15 9 10 20 22 23 21 13 13 11 13 12 11 10 8 10 12 9 6 7 8 6 7 7 9
79 74 66 63 50 36 15 27 23 17 29 39 47 51 51 46 39 29 24 21 17 12 12 9 12 25 25 25 22 15 16 12 10 9 6 7 7 4 6 8 9 8 10 9 12 13 13
78 72 65 60 32 27 19 32 30 27 35 46 50 52 46 44 32 28 19 14 16 10 7 9 11 22 28 24 23 20 18 16 12 9 7 6 4 4 4 4 6 9 9 11 14 16 17
76 67 65 41 28 17 34 34 32 33 41 51 53 50 44 39 30 22 14 18 13 7 5 7 5 15 28 26 20 22 21 17 13 7 3 3 3 5 6 4 4 5 5 6 6 11 14
73 65 62 35 15 9 42 37 35 36 43 52 52 48 38 35 30 20 20 18 11 11 10 9 9 12 18 29 30 28 25 22 16 13 10 7 3 3 5 5 5 5 3 4 3 6 8
70 64 52 20 5 28 38 38 34 43 48 52 50 43 36 33 29 23 21 19 15 14 14 12 13 12 18 24 27 31 28 26 24 16 16 16 11 8 7 7 6 5 4 2 1 2 5
71 58 34 7 3 30 38 34 36 48 48 46 43 40 35 28 27 29 23 18 18 16 17 17 13 11 11 13 17 18 24 28 26 27 21 18 18 16 14 13 12 12 12 12 10 10 11
68 48 19 7 7 22 31 36 41 41 42 43 42 36 31 30 33 26 20 20 20 17 17 19 20 18 18 18 12 16 21 23 25 24 22 22 22 22 23 23 19 17 16 17 17 17 17
58 32 4 8 13 32 41 28 25 43 46 41 33 32 33 33 30 23 20 22 22 21 20 18 21 20 17 17 17 17 15 14 15 19 22 21 22 21 20 19 19 21 20 20 22 21 26
41 15 10 28 39 31 27 30 43 38 35 33 35 33 32 33 30 24 22 23 25 23 22 20 18 18 17 16 15 14 13 13 11 10 9 11 14 17 19 20 20 21 23 23 22 22 27
24 3 29 39 35 23 28 33 38 31 28 30 33 30 37 32 30 26 25 26 26 24 21 17 14 14 13 13 13 13 13 12 10 8 6 5 4 3 4 7 14 18 21 22 23 22 25
3 22 30 36 30 31 32 23 32 29 27 24 23 31 37 30 30 28 26 26 24 22 18 14 12 11 10 9 7 7 7 6 6 4 3 2 2 0 2 3 6 9 11 15 17 19 23
Wind_Direction
338 338 334 328 313 305 303 301 297 294 290 292 293 298 304 307 307 302 299 296 301 304 303 300 305 310 315 316 319 320 319 314 306 288 268 276 250 257 260 231 190 198 202 206 208 205 205
333 335 330 321 314 307 301 298 297 292 289 291 293 295 301 300 305 309 300 299 306 305 309 305 310 316 318 319 321 324 322 312 301 279 288 233 238 248 259 196 183 187 199 201 206 194 206
328 331 322 319 314 309 304 298 293 289 286 286 288 295 299 298 301 301 309 300 305 305 313 309 316 321 321 322 327 328 324 311 286 291 226 220 237 244 217 189 175 185 200 202 205 200 204
328 328 326 319 311 310 305 300 295 290 285 283 284 287 293 294 297 310 299 300 305 306 314 317 320 324 324 328 332 333 328 306 264 282 205 216 222 189 159 180 181 190 199 205 207 201 174
326 325 324 320 311 304 301 299 295 290 285 283 282 283 285 290 293 297 298 309 306 307 320 321 322 326 327 332 333 339 344 354 283 196 205 167 165 185 196 180 184 193 198 205 208 210 209
323 323 316 313 312 305 297 293 288 286 282 279 277 280 281 284 292 297 304 314 307 307 321 319 325 327 329 336 333 338 359 12 59 186 198 191 195 149 157 171 183 194 197 201 205 203 198
319 319 317 313 305 296 294 290 283 279 278 276 276 277 277 278 283 293 297 308 305 307 320 323 329 329 333 339 340 341 352 8 335 203 185 188 174 159 137 181 187 195 203 202 203 200 197
318 319 316 311 299 295 293 287 279 275 272 273 274 275 274 276 278 285 294 305 304 305 320 326 329 326 334 334 341 343 339 34 133 158 188 176 218 209 138 162 196 195 201 198 197 195 232
318 318 311 306 300 295 291 285 278 272 268 267 269 269 271 267 275 282 290 295 299 303 319 326 328 326 334 344 346 5 27 99 140 176 204 186 130 203 149 172 197 204 199 189 191 199 223
317 316 312 311 303 295 290 286 282 274 268 265 263 263 265 265 270 278 285 296 294 308 316 325 328 324 339 350 360 30 78 102 99 170 171 131 131 125 139 129 186 207 195 192 157 164 189
320 319 317 312 305 299 294 287 282 278 275 267 260 253 257 257 262 272 282 286 299 306 316 322 325 327 345 348 23 71 87 82 92 108 114 132 143 112 133 165 131 195 207 203 207 172 168
322 320 315 310 308 301 296 288 281 274 268 264 257 245 246 251 255 262 274 287 289 300 315 319 322 317 331 357 87 106 116 104 100 103 130 149 146 134 136 154 124 135 200 214 218 223 186
322 320 315 313 310 305 301 294 285 275 264 258 247 241 237 242 247 255 266 275 283 298 308 315 319 305 147 135 156 141 90 74 65 112 116 117 98 107 108 122 121 130 169 205 221 214 203
323 319 318 317 315 310 304 296 291 284 269 246 230 230 231 232 240 248 258 273 285 296 302 310 299 243 157 155 152 116 73 85 95 132 119 106 103 93 90 99 140 129 141 160 188 205 199
324 322 322 321 318 313 308 305 302 288 262 240 211 215 219 220 229 241 250 271 278 294 297 308 260 174 158 156 145 110 89 116 130 134 142 133 121 104 91 91 126 141 151 152 172 194 188
325 326 325 324 320 318 315 314 289 132 104 161 197 205 207 209 217 232 243 263 272 287 291 299 232 178 164 165 147 105 92 115 115 118 120 120 133 131 131 119 123 148 149 135 147 150 164
328 328 327 327 324 321 320 304 160 134 101 154 194 197 198 200 212 224 242 262 265 271 285 285 204 183 168 164 169 129 111 118 111 106 108 112 107 106 140 172 164 193 250 153 141 144 167
331 330 329 329 325 323 319 193 181 194 123 154 185 189 192 198 208 217 235 253 254 265 279 266 205 186 177 171 170 165 134 124 103 96 86 81 89 105 115 124 151 201 187 200 204 192 192
332 331 330 330 323 320 288 204 201 165 141 166 177 184 189 198 199 211 229 243 246 259 267 256 201 186 185 185 188 189 180 162 127 106 88 69 77 90 110 125 119 139 184 185 193 200 198
332 332 331 331 323 316 207 194 171 163 164 171 174 183 189 191 194 207 200 240 239 245 258 240 204 181 190 191 188 177 172 155 149 127 89 68 63 80 75 92 129 147 154 178 188 197 210
333 333 333 332 322 309 196 181 180 167 171 172 177 182 180 187 195 183 207 227 223 198 200 230 188 173 187 193 187 181 179 165 168 194 271 12 78 116 106 85 63 73 131 154 176 202 211
334 333 334 331 309 234 184 182 181 175 173 169 175 174 177 187 192 193 206 210 200 158 159 164 175 177 175 196 200 195 201 209 214 235 253 268 221 161 146 123 102 80 80 97 176 220 243
334 334 332 337 218 179 191 184 185 174 168 166 170 170 175 182 181 183 191 190 171 154 153 136 134 166 184 196 206 209 213 219 224 238 249 260 238 226 211 214 218 219 225 205 169 183 220
336 335 332 345 206 192 191 186 177 168 163 166 165 170 169 173 169 177 181 162 151 143 136 132 122 132 151 181 198 208 216 223 233 244 242 232 232 239 245 247 247 255 259 263 263 260 255
340 337 338 46 156 188 181 170 159 167 165 161 170 167 172 172 169 166 169 158 140 130 123 122 117 120 118 123 161 200 209 214 223 224 227 234 237 243 247 251 252 259 261 264 268 266 264
342 336 20 128 140 156 149 154 171 162 164 172 167 173 171 167 160 163 169 155 143 133 127 117 111 112 112 110 116 126 141 171 197 212 221 227 234 237 239 239 242 246 257 259 257 260 266
343 328 151 148 146 148 155 169 163 158 158 164 170 173 169 160 158 166 168 156 147 138 135 129 118 111 110 110 108 109 113 117 124 136 156 197 215 228 237 240 242 246 252 256 256 253 255
342 139 160 159 159 161 162 165 161 158 163 167 168 172 162 160 162 168 167 160 156 152 149 146 140 128 122 114 107 102 99 98 98 94 104 112 133 190 245 243 240 249 253 253 257 263 267
307 162 167 167 173 175 164 166 173 174 173 164 169 171 159 168 167 168 165 158 159 162 161 161 156 149 149 144 141 134 120 112 97 94 95 100 83 28 328 249 269 279 284 281 282 282 284